[[{"header":{"parameterUnit":"m.s-1","parameterCategory":1,"la1":30.2991,"la2":30.254,"lo1":-89.0895,"lo2":-89.0444,"dy":0.0017,"dx":0.0017,"nx":28,"ny":28,"refTime":"2024-06-23T09:00:00:Z","depth":0,"parameterNumber":2,"parameterNumberName":"U-component_of_WINDS"},"data":[0,0,0,0,0,0,0,0,0,0,0,0,0,0,0,0,0,0,0,0,0,0,0,0,0,0,0,0,0,0,0,0,0,0,0,0,0,0,0,0,0,0,0,0,0,0,0,0,0,0,0,0,0,0,0,0,0,0,0.7198,0.7199,0,0.7254,0.7255,0.7255,0.7281,0.7281,0.7281,0.7281,0.7339,0.734,0.7342,0,0,0,0,0,0,0,0,0,0,0,0,0,0.7114,0.7115,0.7198,0.7199,0.7199,0.7254,0.7255,0.7255,0.7281,0.7281,0.7281,0.7281,0.7338,0.734,0.7342,0,0,0,0,0,0,0,0,0,0,0,0,0,0.7158,0.7116,0.7198,0.7219,0.7221,0.7254,0.7255,0.7256,0.7281,0.7281,0.7281,0.7281,0.7337,0.734,0.7342,0.7358,0,0,0.7349,0.735,0,0,0,0,0,0,0,0,0.7156,0.7161,0.7215,0.7217,0.722,0.726,0.7246,0.729,0.7281,0.7258,0.7281,0.7281,0.7313,0.7317,0.7328,0.7361,0.7364,0.735,0.7351,0.7352,0.7353,0,0,0,0,0,0,0,0.7153,0.7159,0.722,0.7216,0.7219,0.7225,0.7232,0.7255,0.7285,0.726,0.7262,0.7269,0.7314,0.7325,0.7329,0.7364,0.735,0.7352,0.7353,0.7354,0.7414,0.7414,0,0,0,0,0,0,0.7146,0.7156,0.7218,0.7222,0.7187,0.7227,0.7234,0.7248,0.7285,0.7291,0.7269,0.7269,0.7321,0.7327,0.7331,0.7353,0.7352,0.7354,0.7356,0.7414,0.7414,0.7415,0,0,0,0,0,0,0.7144,0.7151,0.7216,0.719,0.7198,0.7229,0.7244,0.7249,0.726,0.7291,0.7297,0.7274,0.7322,0.7328,0.7352,0.7356,0.7355,0.7358,0.7414,0.7414,0.7414,0.7397,0,0,0,0,0,0,0.7142,0.715,0.7157,0.719,0.72,0.7235,0.7244,0.725,0.7264,0.7266,0.7298,0.7304,0.7322,0.7348,0.7354,0.7359,0.7359,0.7414,0.7414,0.7414,0.7397,0.7396,0.7396,0,0,0,0,0,0.7138,0.7149,0.7157,0.7164,0.7208,0.7235,0.7241,0.7262,0.7264,0.7271,0.7291,0.7303,0.7354,0.735,0.7357,0.7363,0.7414,0.7414,0.7414,0.7397,0.7396,0.7396,0,0,0,0,0,0,0.7116,0.7154,0.7163,0.7185,0.7207,0.7239,0.7248,0.726,0.7282,0.7282,0.7307,0.7315,0.7336,0.7352,0.7346,0.7381,0.7385,0.7387,0.737,0.7369,0.7368,0.7364,0.7361,0,0,0,0,0,0.7114,0.7133,0.7165,0.7181,0.7191,0.7218,0.7231,0.7245,0.7268,0.7278,0.73,0.7322,0.7344,0.7357,0.7379,0.7399,0.7407,0.7407,0.7406,0.7405,0.7407,0.7419,0.742,0.7416,0.7416,0.7416,0,0,0.7109,0.7132,0.7143,0.7177,0.7196,0.7215,0.7226,0.7245,0.726,0.7281,0.7304,0.7321,0.7348,0.737,0.7381,0.7384,0.7409,0.7406,0.7405,0.7407,0.742,0.742,0.742,0.7416,0.7416,0.7416,0,0,0.7111,0.713,0.7146,0.7164,0.7192,0.721,0.7213,0.7245,0.7257,0.7281,0.7297,0.7315,0.7351,0.7369,0.7384,0.7392,0.7404,0.7399,0.7395,0.7407,0.7407,0.7408,0.7411,0.7412,0.74,0.74,0.74,0,0.7101,0.713,0.7152,0.7171,0.7186,0.7206,0.7222,0.7239,0.7273,0.7282,0.7285,0.7331,0.7351,0.7378,0.738,0.7391,0.7396,0.7395,0.7405,0.7406,0.7407,0.741,0.7411,0.7399,0.7399,0.7399,0.7399,0,0.7118,0.7138,0.7147,0.7179,0.7195,0.7212,0.7237,0.7251,0.7263,0.7281,0.7305,0.7329,0.7356,0.7364,0.7376,0.7393,0.7394,0.7401,0.7405,0.7406,0.741,0.7411,0.7398,0.7398,0.7398,0.7399,0,0,0.7106,0.715,0.7153,0.7168,0.7201,0.7217,0.7235,0.7261,0.7273,0.7295,0.7311,0.7342,0.7348,0.7365,0.738,0.739,0.7396,0.7396,0.7397,0.7395,0.7416,0.741,0.7411,0.7404,0.7404,0.7404,0.7413,0,0.7112,0.7146,0.7167,0.7192,0.7211,0.7231,0.7247,0.7269,0.7285,0.7304,0.7323,0.7344,0.7351,0.7361,0.7372,0.7393,0.74,0.7392,0.7419,0.742,0.7412,0.7413,0.7408,0.7415,0.7415,0.7415,0.7415,0,0.7124,0.7146,0.7173,0.7204,0.7213,0.7227,0.7253,0.727,0.7295,0.7307,0.7325,0.734,0.7361,0.7364,0.7393,0.7387,0.7399,0.7411,0.7412,0.7415,0.7418,0.7417,0.7418,0.7419,0.7418,0.7418,0.7417,0,0.7113,0.7149,0.7171,0.7183,0.7219,0.7229,0.7244,0.727,0.7284,0.7307,0.7316,0.7341,0.7354,0.7373,0.7395,0.7395,0.7422,0.7426,0.7432,0.7432,0.7437,0.7436,0.744,0.7445,0.7445,0.7444,0.7444,0,0.7117,0.7133,0.7166,0.718,0.7198,0.7222,0.724,0.7257,0.7279,0.7296,0.7315,0.733,0.7358,0.7377,0.7394,0.7415,0.7421,0.7431,0.7436,0.743,0.7428,0.7438,0.7438,0.7445,0.7445,0.7445,0.7445,0,0.7108,0.7131,0.7156,0.7188,0.7197,0.7209,0.7237,0.7251,0.7269,0.729,0.7296,0.7324,0.7348,0.7371,0.7403,0.7414,0.7435,0.7441,0.7427,0.7429,0.7434,0.7433,0.7444,0.7447,0.7449,0.7449,0.7449,0,0.711,0.7122,0.7156,0.7169,0.7184,0.7204,0.7219,0.7243,0.7258,0.7288,0.7298,0.7323,0.7344,0.738,0.7404,0.7428,0.7435,0.7437,0.7438,0.7432,0.7435,0.7434,0.7436,0.7436,0.7436,0.7436,0.7436,0,0.711,0.712,0.7141,0.7166,0.7183,0.7204,0.7225,0.7235,0.7263,0.7278,0.7303,0.7319,0.7351,0.7376,0.7403,0.7419,0.7432,0.7435,0.7438,0.7432,0.7423,0.7428,0.7425,0.7435,0.7435,0.7435,0.7435,0.7435,0.7106,0.7119,0.7144,0.7167,0.7186,0.7205,0.722,0.724,0.726,0.7288,0.7301,0.7325,0.7351,0.7389,0.7405,0.7424,0.7428,0.7431,0.7432,0.7433,0.7432,0.742,0.7429,0.7429,0.7429,0.7429,0.743,0,0.7107,0.7125,0.7146,0.7175,0.7193,0.7203,0.7228,0.7242,0.7263,0.7286,0.7306,0.7334,0.7358,0.7383,0.7409,0.742,0.7426,0.7426,0.7425,0.7429,0.7427,0.7422,0.742,0.742,0.742,0.742,0.742,0.742,0.711,0.7132,0.7146,0.7177,0.7195,0.7219,0.7232,0.725,0.7268,0.7298,0.7318,0.7335,0.7359,0.7386,0.7408,0.7415,0.7424,0.7422,0.743,0.7428,0.7429,0.7429,0.7425,0.7423,0.7423,0.743,0.743,0.743]},{"header":{"parameterUnit":"m.s-1","parameterCategory":1,"la1":30.2991,"la2":30.254,"lo1":-89.0895,"lo2":-89.0444,"dy":0.0017,"dx":0.0017,"nx":28,"ny":28,"refTime":"2024-06-23T09:00:00:Z","depth":0,"parameterNumber":3,"parameterNumberName":"V-component_of_WINDS"},"data":[0,0,0,0,0,0,0,0,0,0,0,0,0,0,0,0,0,0,0,0,0,0,0,0,0,0,0,0,0,0,0,0,0,0,0,0,0,0,0,0,0,0,0,0,0,0,0,0,0,0,0,0,0,0,0,0,0,0,0.1555,0.1555,0,0.1565,0.1565,0.1565,0.1569,0.1569,0.1568,0.1568,0.158,0.158,0.158,0,0,0,0,0,0,0,0,0,0,0,0,0,0.1537,0.1537,0.1554,0.1555,0.1555,0.1565,0.1565,0.1565,0.1569,0.1569,0.1568,0.1568,0.1579,0.158,0.158,0,0,0,0,0,0,0,0,0,0,0,0,0,0.1546,0.1537,0.1554,0.1558,0.1558,0.1565,0.1565,0.1565,0.1569,0.1569,0.1568,0.1568,0.1579,0.158,0.158,0.1585,0,0,0.1582,0.1582,0,0,0,0,0,0,0,0,0.1545,0.1546,0.1557,0.1557,0.1558,0.1565,0.1563,0.1572,0.1569,0.1565,0.1568,0.1568,0.1575,0.1576,0.1578,0.1586,0.1586,0.1582,0.1582,0.1582,0.1583,0,0,0,0,0,0,0,0.1544,0.1546,0.1559,0.1557,0.1558,0.1558,0.1559,0.1565,0.157,0.1565,0.1565,0.1566,0.1575,0.1577,0.1578,0.1586,0.1582,0.1582,0.1583,0.1583,0.1597,0.1597,0,0,0,0,0,0,0.1543,0.1545,0.1558,0.1559,0.1551,0.1559,0.156,0.1563,0.157,0.1571,0.1566,0.1566,0.1577,0.1578,0.1579,0.1584,0.1582,0.1583,0.1583,0.1597,0.1597,0.1597,0,0,0,0,0,0,0.1543,0.1544,0.1558,0.1552,0.1554,0.1559,0.1562,0.1563,0.1566,0.1571,0.1572,0.1568,0.1577,0.1578,0.1583,0.1584,0.1583,0.1584,0.1597,0.1597,0.1597,0.1595,0,0,0,0,0,0,0.1542,0.1544,0.1546,0.1552,0.1554,0.1562,0.1563,0.1564,0.1566,0.1567,0.1573,0.1574,0.1577,0.1582,0.1584,0.1585,0.1584,0.1597,0.1597,0.1597,0.1595,0.1595,0.1595,0,0,0,0,0,0.1542,0.1546,0.1546,0.1548,0.1557,0.1562,0.1564,0.1567,0.1567,0.1568,0.1572,0.1573,0.1584,0.1583,0.1584,0.1586,0.1597,0.1597,0.1597,0.1595,0.1595,0.1595,0,0,0,0,0,0,0.154,0.1547,0.1547,0.1553,0.1557,0.1563,0.1566,0.1567,0.1571,0.1571,0.1575,0.1576,0.1581,0.1584,0.1583,0.159,0.159,0.1591,0.1588,0.1588,0.1588,0.1587,0.1585,0,0,0,0,0,0.1541,0.1545,0.155,0.1555,0.1556,0.1561,0.1563,0.1565,0.1569,0.1571,0.1575,0.1579,0.1583,0.1586,0.159,0.1595,0.1596,0.1597,0.1597,0.1597,0.1597,0.1599,0.1599,0.1597,0.1597,0.1597,0,0,0.1541,0.1545,0.1548,0.1554,0.1558,0.1561,0.1562,0.1566,0.1569,0.1572,0.1577,0.158,0.1584,0.1589,0.1591,0.1592,0.1598,0.1597,0.1597,0.1597,0.1599,0.1599,0.1599,0.1597,0.1597,0.1597,0,0,0.1545,0.1548,0.1552,0.1555,0.156,0.1562,0.1563,0.1568,0.157,0.1575,0.1577,0.158,0.1588,0.159,0.1593,0.1596,0.1597,0.1597,0.1597,0.1599,0.1599,0.1599,0.16,0.16,0.1597,0.1597,0.1597,0,0.1545,0.1551,0.1554,0.1558,0.156,0.1562,0.1566,0.1569,0.1575,0.1576,0.1576,0.1585,0.1588,0.1593,0.1594,0.1596,0.1596,0.1596,0.1599,0.1599,0.1599,0.1599,0.16,0.1597,0.1597,0.1597,0.1597,0,0.1551,0.1555,0.1557,0.1562,0.1565,0.1569,0.1572,0.1574,0.1576,0.1578,0.1582,0.1586,0.1591,0.1592,0.1594,0.1597,0.1597,0.1598,0.1598,0.1599,0.1599,0.16,0.1597,0.1597,0.1597,0.1597,0,0,0.1554,0.156,0.1561,0.1563,0.1567,0.157,0.1574,0.1578,0.1579,0.1583,0.1586,0.1591,0.1591,0.1594,0.1596,0.1598,0.1599,0.1598,0.1598,0.1598,0.1602,0.1601,0.1601,0.16,0.16,0.16,0.1601,0,0.1558,0.1564,0.1566,0.1571,0.1574,0.1576,0.1578,0.1581,0.1583,0.1586,0.1589,0.1592,0.1593,0.1594,0.1596,0.1598,0.1599,0.1598,0.1602,0.1602,0.16,0.1601,0.1601,0.1602,0.1601,0.1601,0.1601,0,0.1563,0.1566,0.1571,0.1574,0.1575,0.1578,0.1581,0.1584,0.1587,0.1588,0.1591,0.1593,0.1596,0.1595,0.1599,0.1598,0.16,0.1601,0.1601,0.1602,0.1601,0.1601,0.1602,0.1602,0.1602,0.1602,0.1602,0,0.1564,0.1569,0.1573,0.1574,0.1578,0.158,0.1582,0.1585,0.1587,0.1589,0.1591,0.1594,0.1596,0.1598,0.16,0.16,0.1604,0.1604,0.1604,0.1604,0.1605,0.1605,0.1606,0.1607,0.1607,0.1607,0.1607,0,0.1567,0.157,0.1573,0.1575,0.1578,0.158,0.1583,0.1585,0.1587,0.159,0.1591,0.1593,0.1596,0.1598,0.16,0.1603,0.1604,0.1605,0.1605,0.1604,0.1604,0.1605,0.1605,0.1607,0.1607,0.1607,0.1607,0,0.1569,0.1571,0.1575,0.1578,0.1579,0.1581,0.1584,0.1585,0.1587,0.159,0.1591,0.1593,0.1596,0.1598,0.1602,0.1603,0.1605,0.1606,0.1604,0.1604,0.1605,0.1604,0.1606,0.1606,0.1607,0.1607,0.1607,0,0.1571,0.1573,0.1576,0.1578,0.1579,0.1582,0.1583,0.1585,0.1587,0.159,0.1591,0.1594,0.1596,0.16,0.1602,0.1605,0.1605,0.1606,0.1606,0.1605,0.1605,0.1605,0.1604,0.1606,0.1606,0.1606,0.1606,0,0.1574,0.1575,0.1577,0.1579,0.1581,0.1583,0.1585,0.1586,0.1589,0.159,0.1593,0.1594,0.1597,0.16,0.1602,0.1604,0.1605,0.1606,0.1606,0.1605,0.1604,0.1604,0.1604,0.1606,0.1606,0.1606,0.1606,0.1606,0.1576,0.1577,0.1579,0.1581,0.1583,0.1585,0.1586,0.1588,0.159,0.1592,0.1593,0.1596,0.1598,0.1601,0.1603,0.1604,0.1605,0.1605,0.1605,0.1605,0.1605,0.1603,0.1605,0.1605,0.1605,0.1605,0.1605,0,0.1578,0.1579,0.1581,0.1584,0.1585,0.1586,0.1588,0.1589,0.1591,0.1593,0.1594,0.1597,0.1599,0.1601,0.1603,0.1604,0.1604,0.1604,0.1604,0.1604,0.1605,0.1604,0.1604,0.1604,0.1604,0.1604,0.1604,0.1604,0.158,0.1582,0.1583,0.1585,0.1587,0.1589,0.159,0.1591,0.1592,0.1595,0.1596,0.1597,0.1599,0.1601,0.1603,0.1603,0.1604,0.1603,0.1604,0.1604,0.1604,0.1604,0.1604,0.1604,0.1604,0.1603,0.1603,0.1603]}]]